Location: *
(45.9500°N, 9.0833°E)
Time: 23:28:02
(UTC+00:00)

Tiros 1 despin weight - Pass Details

Date: 24 June 2021
Orbit: 593 x 642 km, 48.2° (Epoch: 02 August)

Event Time Altitude Azimuth Distance (km) Brightness Sun altitude
Rises 03:22:27 0° 224° (SW) 2,836 - -2.4°
Exits shadow 03:23:06 - 223° (SW) 2,585 ? -2.3°
Reaches altitude 10° 03:24:50 10° 217° (SW) 1,930 ? -2.1°
Maximum altitude 03:28:58 40° 148° (SSE) 884 ? -1.5°
Drops below altitude 10° 03:33:05 10° 79° (E) 1,925 ? -1.0°
Sets 03:35:27 0° 72° (ENE) 2,828 ? -0.6°
